^^
Your Local Weather - Clay, NY Station Historical Data
Daily Summary for November 24, 2017 Units:  English    Metric   Both
« Previous Day
Next Day »
Daily Weekly Monthly Yearly Custom
  High: Low: Average:
Temperature: 52.3 °F 37.0 °F 43 °F
Dew Point: 31.1 °F 23.8 °F 26.5 °F
Humidity: 67% 37% 53%
Wind Speed: 6.0mph 0.0mph 2.3mph
Wind Gust: 10.0mph - -
Wind- - SSW
Pressure: 29.94 in 29.67 in -
Precipitation: 0.00 in    
Historical Graphs
 
 
Tabular Data for November 24, 2017
Time Temperature Dew Point Pressure Wind Wind Speed Wind Gust Humidity Rainfall Rate (Hourly) solar
00:06 37.1 °F 25.3 °F 29.94 in SW 2.0 mph 4.0 mph 62% 0.00 in 0 W/m2
00:12 37.1 °F 25.3 °F 29.94 in SW 2.0 mph 2.0 mph 62% 0.00 in 0 W/m2
00:18 37.1 °F 25.7 °F 29.94 in SSW 1.0 mph 2.0 mph 63% 0.00 in 0 W/m2
00:24 37.0 °F 25.6 °F 29.94 in SSW 1.0 mph 1.0 mph 63% 0.00 in 0 W/m2
00:30 37.1 °F 25.7 °F 29.94 in SW 1.0 mph 4.0 mph 63% 0.00 in 0 W/m2
00:42 37.1 °F 25.7 °F 29.94 in SW 1.0 mph 2.0 mph 63% 0.00 in 0 W/m2
00:54 37.1 °F 25.7 °F 29.94 in WSW 2.0 mph 2.0 mph 63% 0.00 in 0 W/m2
01:00 37.1 °F 25.7 °F 29.94 in SW 2.0 mph 2.0 mph 63% 0.00 in 0 W/m2
01:06 37.2 °F 25.8 °F 29.94 in SW 3.0 mph 5.0 mph 63% 0.00 in 0 W/m2
01:12 37.2 °F 25.8 °F 29.94 in SSW 2.0 mph 2.0 mph 63% 0.00 in 0 W/m2
01:18 37.2 °F 25.8 °F 29.94 in SW 2.0 mph 4.0 mph 63% 0.00 in 0 W/m2
01:24 37.2 °F 25.8 °F 29.93 in SW 2.0 mph 4.0 mph 63% 0.00 in 0 W/m2
01:30 37.2 °F 25.8 °F 29.93 in SW 2.0 mph 2.0 mph 63% 0.00 in 0 W/m2
01:36 37.2 °F 25.8 °F 29.93 in SSW 2.0 mph 2.0 mph 63% 0.00 in 0 W/m2
01:50 37.2 °F 25.8 °F 29.94 in WSW 1.0 mph 2.0 mph 63% 0.00 in 0 W/m2
01:55 37.2 °F 25.8 °F 29.94 in SW 1.0 mph 2.0 mph 63% 0.00 in 0 W/m2
02:13 37.3 °F 25.8 °F 29.94 in SW 1.0 mph 2.0 mph 63% 0.00 in 0 W/m2
02:20 37.4 °F 25.9 °F 29.93 in SSW 2.0 mph 2.0 mph 63% 0.00 in 0 W/m2
02:26 37.4 °F 25.9 °F 29.93 in SW 1.0 mph 2.0 mph 63% 0.00 in 0 W/m2
02:32 37.5 °F 25.7 °F 29.93 in SW 2.0 mph 3.0 mph 62% 0.00 in 0 W/m2
02:38 37.5 °F 26.0 °F 29.93 in South 2.0 mph 3.0 mph 63% 0.00 in 0 W/m2
02:44 37.5 °F 26.0 °F 29.93 in SSW 2.0 mph 4.0 mph 63% 0.00 in 0 W/m2
02:50 37.6 °F 26.1 °F 29.93 in SW 1.0 mph 5.0 mph 63% 0.00 in 0 W/m2
02:56 37.6 °F 25.7 °F 29.93 in SW 2.0 mph 5.0 mph 62% 0.00 in 0 W/m2
03:02 37.6 °F 26.1 °F 29.93 in SW 1.0 mph 1.0 mph 63% 0.00 in 0 W/m2
03:08 37.5 °F 26.0 °F 29.93 in SW 1.0 mph 1.0 mph 63% 0.00 in 0 W/m2
03:20 37.5 °F 26.0 °F 29.93 in SW 1.0 mph 1.0 mph 63% 0.00 in 0 W/m2
03:26 37.4 °F 25.9 °F 29.93 in SW 1.0 mph 1.0 mph 63% 0.00 in 0 W/m2
03:38 37.3 °F 26.2 °F 29.93 in Calm     64% 0.00 in 0 W/m2
03:50 37.3 °F 26.2 °F 29.93 in Calm   1.0 mph 64% 0.00 in 0 W/m2
03:56 37.3 °F 26.2 °F 29.93 in SW 1.0 mph 1.0 mph 64% 0.00 in 0 W/m2
04:02 37.3 °F 26.2 °F 29.93 in Calm     64% 0.00 in 0 W/m2
04:14 37.4 °F 26.3 °F 29.93 in SW 1.0 mph 2.0 mph 64% 0.00 in 0 W/m2
04:20 37.5 °F 26.4 °F 29.93 in SW 1.0 mph 1.0 mph 64% 0.00 in 0 W/m2
04:26 37.6 °F 26.1 °F 29.93 in SSW 1.0 mph 1.0 mph 63% 0.00 in 0 W/m2
04:32 37.6 °F 26.5 °F 29.93 in Calm   2.0 mph 64% 0.00 in 0 W/m2
04:44 37.7 °F 26.6 °F 29.93 in SSW 1.0 mph 2.0 mph 64% 0.00 in 0 W/m2
04:49 37.7 °F 26.6 °F 29.93 in Calm     64% 0.00 in 0 W/m2
04:56 37.7 °F 26.6 °F 29.93 in SSW 1.0 mph 2.0 mph 64% 0.00 in 0 W/m2
05:02 37.7 °F 26.6 °F 29.93 in SSW 1.0 mph 3.0 mph 64% 0.00 in 0 W/m2
05:08 37.7 °F 26.6 °F 29.93 in SSW 1.0 mph 4.0 mph 64% 0.00 in 0 W/m2
05:14 37.8 °F 26.7 °F 29.93 in SSW 1.0 mph 2.0 mph 64% 0.00 in 0 W/m2
05:20 37.8 °F 26.7 °F 29.93 in SW 2.0 mph 2.0 mph 64% 0.00 in 0 W/m2
05:25 37.9 °F 26.4 °F 29.93 in SW 2.0 mph 2.0 mph 63% 0.00 in 0 W/m2
05:32 37.9 °F 26.8 °F 29.93 in SW 1.0 mph 2.0 mph 64% 0.00 in 0 W/m2
05:38 37.8 °F 26.7 °F 29.92 in SW 1.0 mph 3.0 mph 64% 0.00 in 0 W/m2
05:44 37.8 °F 26.7 °F 29.92 in SW 2.0 mph 4.0 mph 64% 0.00 in 0 W/m2
05:50 37.8 °F 26.7 °F 29.92 in SW 2.0 mph 2.0 mph 64% 0.00 in 0 W/m2
05:56 37.8 °F 26.7 °F 29.92 in SW 1.0 mph 2.0 mph 64% 0.00 in 0 W/m2
06:02 37.9 °F 26.8 °F 29.93 in SW 1.0 mph 2.0 mph 64% 0.00 in 0 W/m2
06:08 37.9 °F 26.8 °F 29.93 in SW 1.0 mph 2.0 mph 64% 0.00 in 0 W/m2
06:13 37.9 °F 27.2 °F 29.93 in Calm   1.0 mph 65% 0.00 in 0 W/m2
06:19 37.7 °F 27.0 °F 29.93 in SW 1.0 mph 2.0 mph 65% 0.00 in 0 W/m2
06:26 37.7 °F 27.0 °F 29.93 in SW 1.0 mph 3.0 mph 65% 0.00 in 0 W/m2
06:32 37.6 °F 27.3 °F 29.93 in South 1.0 mph 3.0 mph 66% 0.00 in 0 W/m2
06:38 37.7 °F 27.0 °F 29.92 in SSW 2.0 mph 3.0 mph 65% 0.00 in 0 W/m2
06:44 37.7 °F 27.0 °F 29.92 in SSW 2.0 mph 2.0 mph 65% 0.00 in 0 W/m2
06:49 37.6 °F 26.9 °F 29.92 in South 2.0 mph 2.0 mph 65% 0.00 in 0 W/m2
06:56 37.6 °F 26.9 °F 29.92 in South 2.0 mph 5.0 mph 65% 0.00 in 0 W/m2
07:02 37.7 °F 27.0 °F 29.92 in SSW 2.0 mph 2.0 mph 65% 0.00 in 0 W/m2
07:10 37.6 °F 26.9 °F 29.92 in South 1.0 mph 3.0 mph 65% 0.00 in 9 W/m2
07:16 37.4 °F 26.7 °F 29.92 in SSW 1.0 mph 3.0 mph 65% 0.00 in 14 W/m2
07:22 37.3 °F 26.6 °F 29.92 in South 1.0 mph 4.0 mph 65% 0.00 in 19 W/m2
07:28 37.2 °F 26.5 °F 29.93 in SSW 1.0 mph 4.0 mph 65% 0.00 in 25 W/m2
07:33 37.1 °F 26.8 °F 29.93 in SSW 1.0 mph 3.0 mph 66% 0.00 in 30 W/m2
07:40 37.1 °F 26.8 °F 29.93 in SSW 1.0 mph 2.0 mph 66% 0.00 in 35 W/m2
07:46 37.1 °F 26.8 °F 29.93 in SSW 1.0 mph 2.0 mph 66% 0.00 in 40 W/m2
07:52 37.2 °F 27.2 °F 29.93 in SSW 1.0 mph 3.0 mph 67% 0.00 in 46 W/m2
07:58 37.4 °F 27.4 °F 29.93 in SSW 1.0 mph 3.0 mph 67% 0.00 in 58 W/m2
08:04 37.6 °F 27.6 °F 29.93 in SSW 1.0 mph 1.0 mph 67% 0.00 in 74 W/m2
08:10 38.0 °F 28.0 °F 29.93 in Calm     67% 0.00 in 113 W/m2
08:16 38.3 °F 28.3 °F 29.93 in SSE 2.0 mph 5.0 mph 67% 0.00 in 142 W/m2
08:22 39.0 °F 28.6 °F 29.92 in South 3.0 mph 4.0 mph 66% 0.00 in 141 W/m2
08:28 39.3 °F 28.5 °F 29.93 in SW 3.0 mph 6.0 mph 65% 0.00 in 125 W/m2
08:33 39.5 °F 28.7 °F 29.93 in South 3.0 mph 4.0 mph 65% 0.00 in 178 W/m2
08:40 39.9 °F 28.7 °F 29.93 in SSE 4.0 mph 6.0 mph 64% 0.00 in 209 W/m2
08:46 40.2 °F 29.0 °F 29.93 in SSE 3.0 mph 6.0 mph 64% 0.00 in 209 W/m2
08:52 40.3 °F 29.1 °F 29.93 in SSE 4.0 mph 7.0 mph 64% 0.00 in 227 W/m2
08:58 40.6 °F 29.0 °F 29.93 in South 5.0 mph 7.0 mph 63% 0.00 in 239 W/m2
09:04 40.8 °F 29.2 °F 29.93 in South 4.0 mph 5.0 mph 63% 0.00 in 236 W/m2
09:10 41.2 °F 29.5 °F 29.92 in SSW 5.0 mph 5.0 mph 63% 0.00 in 257 W/m2
09:15 41.2 °F 29.2 °F 29.92 in SSW 5.0 mph 8.0 mph 62% 0.00 in 271 W/m2
09:22 41.4 °F 29.3 °F 29.92 in SSW 5.0 mph 7.0 mph 62% 0.00 in 285 W/m2
09:28 41.7 °F 29.2 °F 29.92 in SSE 5.0 mph 7.0 mph 61% 0.00 in 299 W/m2
09:36 42.1 °F 29.2 °F 29.92 in SSE 4.0 mph 6.0 mph 60% 0.00 in 313 W/m2
09:42 42.2 °F 28.5 °F 29.92 in South 5.0 mph 9.0 mph 58% 0.00 in 325 W/m2
09:48 42.9 °F 29.5 °F 29.92 in SW 4.0 mph 9.0 mph 59% 0.00 in 336 W/m2
09:54 42.6 °F 28.4 °F 29.92 in SSW 5.0 mph 10.0 mph 57% 0.00 in 345 W/m2
09:59 42.8 °F 29.0 °F 29.92 in WSW 6.0 mph 6.0 mph 58% 0.00 in 357 W/m2
10:05 43.4 °F 29.2 °F 29.91 in South 4.0 mph 10.0 mph 57% 0.00 in 364 W/m2
10:12 43.3 °F 29.1 °F 29.91 in South 5.0 mph 6.0 mph 57% 0.00 in 373 W/m2
10:18 43.6 °F 29.4 °F 29.91 in West 5.0 mph 6.0 mph 57% 0.00 in 381 W/m2
10:24 43.8 °F 29.1 °F 29.91 in SW 5.0 mph 7.0 mph 56% 0.00 in 390 W/m2
10:30 44.2 °F 29.5 °F 29.91 in SW 4.0 mph 6.0 mph 56% 0.00 in 397 W/m2
10:35 44.4 °F 30.1 °F 29.90 in South 4.0 mph 8.0 mph 57% 0.00 in 404 W/m2
10:42 45.0 °F 30.2 °F 29.90 in SE 4.0 mph 5.0 mph 56% 0.00 in 411 W/m2
10:48 44.4 °F 29.7 °F 29.89 in SSE 5.0 mph 7.0 mph 56% 0.00 in 418 W/m2
10:54 45.5 °F 31.1 °F 29.89 in SSE 5.0 mph 5.0 mph 57% 0.00 in 424 W/m2
11:00 45.3 °F 30.1 °F 29.89 in SSW 4.0 mph 4.0 mph 55% 0.00 in 429 W/m2
11:05 45.3 °F 29.6 °F 29.89 in SSW 5.0 mph 7.0 mph 54% 0.00 in 434 W/m2
11:12 45.8 °F 30.1 °F 29.89 in South 5.0 mph 5.0 mph 54% 0.00 in 438 W/m2
11:20 46.0 °F 28.4 °F 29.88 in SW 4.0 mph 6.0 mph 50% 0.00 in 441 W/m2
11:26 46.2 °F 28.6 °F 29.88 in SW 5.0 mph 7.0 mph 50% 0.00 in 443 W/m2
11:32 46.5 °F 28.3 °F 29.87 in SSW 5.0 mph 5.0 mph 49% 0.00 in 446 W/m2
11:38 46.9 °F 26.6 °F 29.86 in West 5.0 mph 6.0 mph 45% 0.00 in 448 W/m2
11:43 47.8 °F 28.5 °F 29.86 in WSW 4.0 mph 8.0 mph 47% 0.00 in 448 W/m2
11:50 47.4 °F 24.9 °F 29.86 in SW 4.0 mph 7.0 mph 41% 0.00 in 454 W/m2
11:56 47.7 °F 25.7 °F 29.85 in SSW 5.0 mph 7.0 mph 42% 0.00 in 455 W/m2
12:03 48.3 °F 24.5 °F 29.85 in South 4.0 mph 6.0 mph 39% 0.00 in 455 W/m2
12:10 47.9 °F 24.7 °F 29.84 in WSW 5.0 mph 5.0 mph 40% 0.00 in 455 W/m2
12:16 48.6 °F 25.3 °F 29.83 in SSW 4.0 mph 5.0 mph 40% 0.00 in 448 W/m2
12:22 48.8 °F 24.3 °F 29.83 in South 4.0 mph 4.0 mph 38% 0.00 in 452 W/m2
12:28 49.0 °F 24.5 °F 29.83 in South 4.0 mph 5.0 mph 38% 0.00 in 452 W/m2
12:34 48.9 °F 24.4 °F 29.83 in SSW 4.0 mph 7.0 mph 38% 0.00 in 468 W/m2
12:40 49.4 °F 25.4 °F 29.83 in SW 4.0 mph 4.0 mph 39% 0.00 in 427 W/m2
12:45 50.0 °F 25.4 °F 29.83 in SSW 4.0 mph 5.0 mph 38% 0.00 in 420 W/m2
12:52 49.7 °F 24.5 °F 29.83 in SW 4.0 mph 7.0 mph 37% 0.00 in 439 W/m2
12:59 50.3 °F 25.0 °F 29.83 in SW 4.0 mph 4.0 mph 37% 0.00 in 427 W/m2
13:06 49.8 °F 25.2 °F 29.82 in SSW 4.0 mph 6.0 mph 38% 0.00 in 427 W/m2
13:12 50.1 °F 27.3 °F 29.82 in SSE 5.0 mph 9.0 mph 41% 0.00 in 413 W/m2
13:18 50.2 °F 25.5 °F 29.82 in South 5.0 mph 9.0 mph 38% 0.00 in 403 W/m2
13:24 50.2 °F 26.2 °F 29.82 in South 5.0 mph 6.0 mph 39% 0.00 in 397 W/m2
13:29 50.6 °F 25.9 °F 29.81 in SSW 4.0 mph 7.0 mph 38% 0.00 in 392 W/m2
13:36 50.7 °F 26.0 °F 29.81 in SW 5.0 mph 7.0 mph 38% 0.00 in 367 W/m2
13:42 50.9 °F 26.2 °F 29.80 in SW 5.0 mph 5.0 mph 38% 0.00 in 364 W/m2
13:48 51.2 °F 25.8 °F 29.80 in SW 4.0 mph 7.0 mph 37% 0.00 in 366 W/m2
13:53 50.9 °F 25.5 °F 29.80 in SSW 5.0 mph 9.0 mph 37% 0.00 in 357 W/m2
14:00 51.1 °F 25.7 °F 29.80 in SSW 5.0 mph 5.0 mph 37% 0.00 in 350 W/m2
14:06 51.2 °F 26.4 °F 29.79 in SW 4.0 mph 8.0 mph 38% 0.00 in 339 W/m2
14:12 51.5 °F 26.7 °F 29.79 in West 4.0 mph 5.0 mph 38% 0.00 in 327 W/m2
14:18 51.5 °F 26.7 °F 29.78 in South 4.0 mph 6.0 mph 38% 0.00 in 316 W/m2
14:24 51.5 °F 26.7 °F 29.78 in SW 5.0 mph 9.0 mph 38% 0.00 in 304 W/m2
14:30 51.6 °F 26.8 °F 29.78 in SSW 5.0 mph 5.0 mph 38% 0.00 in 292 W/m2
14:36 51.8 °F 27.0 °F 29.78 in SSW 3.0 mph 5.0 mph 38% 0.00 in 279 W/m2
14:42 52.0 °F 26.5 °F 29.77 in SSE 3.0 mph 5.0 mph 37% 0.00 in 267 W/m2
14:48 52.0 °F 26.5 °F 29.77 in SSW 4.0 mph 6.0 mph 37% 0.00 in 253 W/m2
14:54 51.7 °F 26.2 °F 29.77 in SSW 4.0 mph 10.0 mph 37% 0.00 in 243 W/m2
15:00 51.9 °F 27.1 °F 29.77 in South 4.0 mph 7.0 mph 38% 0.00 in 229 W/m2
15:06 52.0 °F 26.5 °F 29.77 in SSW 4.0 mph 7.0 mph 37% 0.00 in 214 W/m2
15:12 52.1 °F 26.6 °F 29.76 in SSE 4.0 mph 4.0 mph 37% 0.00 in 200 W/m2
15:18 52.1 °F 27.2 °F 29.76 in SSE 4.0 mph 8.0 mph 38% 0.00 in 185 W/m2
15:24 52.3 °F 26.8 °F 29.76 in SSW 4.0 mph 6.0 mph 37% 0.00 in 171 W/m2
15:30 52.1 °F 27.2 °F 29.75 in WSW 3.0 mph 3.0 mph 38% 0.00 in 156 W/m2
15:36 52.1 °F 27.9 °F 29.75 in SW 3.0 mph 4.0 mph 39% 0.00 in 120 W/m2
15:42 52.0 °F 27.1 °F 29.76 in SSE 3.0 mph 5.0 mph 38% 0.00 in 102 W/m2
15:48 52.0 °F 27.1 °F 29.75 in South 2.0 mph 5.0 mph 38% 0.00 in 97 W/m2
15:54 51.9 °F 27.1 °F 29.75 in South 2.0 mph 7.0 mph 38% 0.00 in 19 W/m2
16:00 51.6 °F 27.4 °F 29.75 in SW 3.0 mph 3.0 mph 39% 0.00 in 18 W/m2
16:06 51.3 °F 27.2 °F 29.75 in SSW 3.0 mph 4.0 mph 39% 0.00 in 16 W/m2
16:12 50.9 °F 27.4 °F 29.75 in South 2.0 mph 3.0 mph 40% 0.00 in 14 W/m2
16:18 50.4 °F 27.6 °F 29.75 in South 2.0 mph 3.0 mph 41% 0.00 in 12 W/m2
16:23 49.9 °F 27.1 °F 29.75 in SSE 2.0 mph 4.0 mph 41% 0.00 in 9 W/m2
16:30 49.5 °F 27.3 °F 29.75 in SSE 3.0 mph 3.0 mph 42% 0.00 in 5 W/m2
16:36 49.3 °F 26.6 °F 29.75 in South 3.0 mph 3.0 mph 41% 0.00 in 0 W/m2
16:42 49.0 °F 26.9 °F 29.75 in SSE 3.0 mph 3.0 mph 42% 0.00 in 0 W/m2
16:48 48.7 °F 26.6 °F 29.75 in SSE 2.0 mph 3.0 mph 42% 0.00 in 0 W/m2
16:53 48.3 °F 26.8 °F 29.75 in SSE 1.0 mph 2.0 mph 43% 0.00 in 0 W/m2
17:00 47.7 °F 26.8 °F 29.75 in Calm     44% 0.00 in 0 W/m2
17:06 47.0 °F 26.7 °F 29.75 in Calm     45% 0.00 in 0 W/m2
17:12 45.9 °F 26.8 °F 29.75 in Calm     47% 0.00 in 0 W/m2
17:18 45.3 °F 26.2 °F 29.75 in Calm     47% 0.00 in 0 W/m2
17:24 45.0 °F 26.5 °F 29.74 in Calm   1.0 mph 48% 0.00 in 0 W/m2
17:30 44.4 °F 26.4 °F 29.74 in Calm     49% 0.00 in 0 W/m2
17:35 43.9 °F 26.4 °F 29.74 in Calm   2.0 mph 50% 0.00 in 0 W/m2
17:42 43.8 °F 26.3 °F 29.74 in SSE 1.0 mph 1.0 mph 50% 0.00 in 0 W/m2
17:48 43.4 °F 26.5 °F 29.74 in Calm   2.0 mph 51% 0.00 in 0 W/m2
17:54 43.3 °F 26.4 °F 29.74 in Calm     51% 0.00 in 0 W/m2
18:00 43.2 °F 26.3 °F 29.74 in Calm     51% 0.00 in 0 W/m2
18:06 43.1 °F 26.7 °F 29.74 in Calm     52% 0.00 in 0 W/m2
18:12 43.0 °F 27.0 °F 29.74 in Calm     53% 0.00 in 0 W/m2
18:18 43.0 °F 27.0 °F 29.74 in Calm   2.0 mph 53% 0.00 in 0 W/m2
18:23 43.4 °F 27.4 °F 29.74 in SSE 1.0 mph 3.0 mph 53% 0.00 in 0 W/m2
18:30 43.8 °F 26.8 °F 29.74 in SSE 1.0 mph 1.0 mph 51% 0.00 in 0 W/m2
18:36 43.9 °F 26.9 °F 29.74 in Calm   1.0 mph 51% 0.00 in 0 W/m2
18:42 44.1 °F 26.6 °F 29.74 in SSE 1.0 mph 2.0 mph 50% 0.00 in 0 W/m2
18:48 44.2 °F 26.7 °F 29.74 in SSE 1.0 mph 2.0 mph 50% 0.00 in 0 W/m2
19:00 46.0 °F 26.4 °F 29.74 in South 4.0 mph 5.0 mph 46% 0.00 in 0 W/m2
19:06 46.8 °F 26.0 °F 29.74 in SSE 5.0 mph 6.0 mph 44% 0.00 in 0 W/m2
19:12 46.9 °F 26.1 °F 29.73 in South 5.0 mph 8.0 mph 44% 0.00 in 0 W/m2
19:18 46.9 °F 26.1 °F 29.73 in South 4.0 mph 8.0 mph 44% 0.00 in 0 W/m2
19:24 46.7 °F 25.9 °F 29.73 in SSE 4.0 mph 6.0 mph 44% 0.00 in 0 W/m2
19:29 46.8 °F 25.5 °F 29.73 in SSE 4.0 mph 4.0 mph 43% 0.00 in 0 W/m2
19:36 46.8 °F 25.5 °F 29.73 in SSE 5.0 mph 5.0 mph 43% 0.00 in 0 W/m2
19:42 46.5 °F 25.2 °F 29.73 in SSE 4.0 mph 5.0 mph 43% 0.00 in 0 W/m2
19:48 46.3 °F 25.6 °F 29.73 in SSE 3.0 mph 5.0 mph 44% 0.00 in 0 W/m2
19:54 46.0 °F 25.3 °F 29.73 in SSE 2.0 mph 4.0 mph 44% 0.00 in 0 W/m2
20:00 45.7 °F 25.5 °F 29.73 in SSE 2.0 mph 9.0 mph 45% 0.00 in 0 W/m2
20:06 45.8 °F 25.1 °F 29.73 in SSE 3.0 mph 9.0 mph 44% 0.00 in 0 W/m2
20:12 45.4 °F 25.3 °F 29.73 in SSE 1.0 mph 3.0 mph 45% 0.00 in 0 W/m2
20:18 44.7 °F 25.2 °F 29.73 in SSE 1.0 mph 3.0 mph 46% 0.00 in 0 W/m2
20:23 44.0 °F 25.5 °F 29.73 in SSE 1.0 mph 1.0 mph 48% 0.00 in 0 W/m2
20:29 43.5 °F 25.1 °F 29.73 in SSE 1.0 mph 1.0 mph 48% 0.00 in 0 W/m2
20:36 43.8 °F 25.4 °F 29.72 in SSE 1.0 mph 2.0 mph 48% 0.00 in 0 W/m2
20:42 43.8 °F 25.4 °F 29.72 in SE 2.0 mph 3.0 mph 48% 0.00 in 0 W/m2
20:48 43.8 °F 24.9 °F 29.72 in SSE 2.0 mph 5.0 mph 47% 0.00 in 0 W/m2
20:53 44.1 °F 25.1 °F 29.72 in SSE 1.0 mph 2.0 mph 47% 0.00 in 0 W/m2
20:59 43.9 °F 24.9 °F 29.72 in Calm     47% 0.00 in 0 W/m2
21:05 42.9 °F 26.0 °F 29.72 in Calm     51% 0.00 in 0 W/m2
21:12 41.6 °F 25.7 °F 29.72 in Calm     53% 0.00 in 0 W/m2
21:18 40.5 °F 26.0 °F 29.72 in Calm     56% 0.00 in 0 W/m2
21:24 39.8 °F 25.4 °F 29.72 in Calm   1.0 mph 56% 0.00 in 0 W/m2
21:30 39.2 °F 25.6 °F 29.72 in Calm     58% 0.00 in 0 W/m2
21:36 38.7 °F 26.0 °F 29.72 in Calm     60% 0.00 in 0 W/m2
21:42 38.2 °F 26.3 °F 29.72 in Calm     62% 0.00 in 0 W/m2
21:48 37.9 °F 25.6 °F 29.72 in Calm     61% 0.00 in 0 W/m2
21:54 37.7 °F 25.5 °F 29.72 in Calm     61% 0.00 in 0 W/m2
22:00 39.0 °F 25.9 °F 29.71 in SSE 1.0 mph 1.0 mph 59% 0.00 in 0 W/m2
22:06 38.8 °F 25.3 °F 29.71 in SSE 1.0 mph 1.0 mph 58% 0.00 in 0 W/m2
22:18 38.5 °F 25.0 °F 29.71 in Calm   1.0 mph 58% 0.00 in 0 W/m2
22:24 38.2 °F 25.1 °F 29.71 in SSE 1.0 mph 1.0 mph 59% 0.00 in 0 W/m2
22:30 38.7 °F 24.8 °F 29.70 in SSE 1.0 mph 1.0 mph 57% 0.00 in 0 W/m2
22:32 39.4 °F 25.0 °F 29.70 in SE 1.0 mph 1.0 mph 56% 0.00 in 0 W/m2
22:38 40.2 °F 24.9 °F 29.70 in SE 1.0 mph 2.0 mph 54% 0.00 in 0 W/m2
22:44 41.2 °F 24.9 °F 29.70 in SE 1.0 mph 2.0 mph 52% 0.00 in 0 W/m2
22:48 41.9 °F 24.6 °F 29.70 in SSE 2.0 mph 4.0 mph 50% 0.00 in 0 W/m2
22:53 42.7 °F 24.8 °F 29.70 in SSE 2.0 mph 3.0 mph 49% 0.00 in 0 W/m2
23:00 43.2 °F 24.3 °F 29.70 in SE 2.0 mph 2.0 mph 47% 0.00 in 0 W/m2
23:06 43.6 °F 24.2 °F 29.69 in SSE 3.0 mph 5.0 mph 46% 0.00 in 0 W/m2
23:12 43.6 °F 24.2 °F 29.69 in SE 2.0 mph 4.0 mph 46% 0.00 in 0 W/m2
23:18 43.6 °F 24.7 °F 29.69 in SSE 2.0 mph 4.0 mph 47% 0.00 in 0 W/m2
23:24 43.2 °F 23.8 °F 29.69 in SSE 1.0 mph 2.0 mph 46% 0.00 in 0 W/m2
23:29 43.0 °F 24.1 °F 29.68 in SSE 1.0 mph 1.0 mph 47% 0.00 in 0 W/m2
23:36 43.0 °F 24.1 °F 29.68 in SE 1.0 mph 5.0 mph 47% 0.00 in 0 W/m2
23:42 42.6 °F 23.8 °F 29.67 in SE 1.0 mph 1.0 mph 47% 0.00 in 0 W/m2
23:48 42.6 °F 23.8 °F 29.67 in SE 1.0 mph 1.0 mph 47% 0.00 in 0 W/m2
23:54 42.8 °F 24.4 °F 29.67 in SE 1.0 mph 2.0 mph 48% 0.00 in 0 W/m2
23:58 42.9 °F 24.5 °F 29.67 in SE 2.0 mph 2.0 mph 48% 0.00 in 0 W/m2
Country Meadow, Clay, NY, USA
Compliments of Weather Underground - 2 mb